Epoch = 2007 Aug. 8.0 TT
T = 2007 July 25.90695 TT Peri. = 15.27124
e = 0.5976949 Node = 282.20178 2000.0
q = 1.1733898 AU Incl. = 20.40165
a = 2.9166666 AU n = 0.19786724 P = 4.981 years
星図
光度変化
m1 = 18.5 + 5 logΔ + 10.0 log r
軌道要素は、
IAUC 8856
に掲載されたものです。
星図は StellaNavigator Ver.2.0 for Windows
(アストロアーツ
編著 / アスキー出版局刊) で作成したものです。
光度グラフはComet for
Windowsで作成したものです。
Copyright(C) Seiichi Yoshida (comet@aerith.net). All rights reserved.